星链-30088 (STARLINK-30088 )

导读

STARLINK-30088是美国太空探索技术公司(SpaceX)于2023年7月28日发射的星链(Starlink)卫星,归属于美国星链星座计划。星链计划旨在构建全球卫星互联网星座,提供全球范围高速互联网接入服务,该卫星入轨后将参与星座组网,助力实现偏远地区网络覆盖、补充现有通信网络。

基本信息
目录编号:
57462
目录名称:
STARLINK-30088
国际标识:
2023-107F
轨道中心:
EARTH
卫星名称:
星链-30088
卫星全名:
星链-30088 (STARLINK-30088 )
卫星状态:
在轨 (已飞行1141 天)
发射日期:
2023-07-28 UTC
国别 :
美国 (US)
星等 :
--
该卫星已列入 空间交会检测服务 Space Conjunction Data Service (SCDS) ,当前飞行风险评估等级: 无高风险
轨道信息
数据来源 国际轨道数据
星历时间: 2026-09-11T15:39:27+0800
5小时前
查看轨道信息
半长轴: 6861.188km
偏心率: 0.0001679
轨道倾角: 43.004°
近地点辐角 256.048°
升交点赤经 8.028°
平近点角 104.019°
近地点: 481.899km
远地点: 484.203km
周期: 94.267分钟
每日圈数: 15.275796
详细信息
固有亮度:
5
最大亮度:
0.3
卫星平台:
Starlink v2.0 mini
覆盖范围:
全球
运营商:
太空探索技术公司
运营商所在国:
美国
制造商(研发单位):
太空探索技术公司
制造商所在国:
美国
使用方式:
暂无
卫星简介
星链(Starlink)计划是由太空探索技术公司(SpaceX)提出的一个巨型低轨卫星互联网星座项目,计划在2019年至2024年间在太空搭建由约1.2万颗卫星组成的“星链”网络,其中1584颗将部署在地球上空550千米处的近地轨道,并从2020年开始工作。该卫星仍在工作。
2D轨道图
3D轨道图
轨道高度分析图
轨道倾角分析图
轨道综合分析图
查看轨道综合分析图
与全量物体交会距离演化趋势
与全量物体交会风险概率演化趋势